Theta_e
302 303 302 302 299 298 296 297 294 291 287 285 284 285 284 284 288 288 287 287 286 285 285 285 284 283 282 281 282 282 282 283 282 282 282 283 282 282 283 284 283 283 283
301 301 300 300 298 296 295 295 292 289 286 284 284 283 284 284 286 287 285 285 285 284 284 283 282 281 281 281 281 281 282 282 282 280 281 281 281 282 282 282 281 282 282
300 299 299 298 296 294 293 293 290 288 285 283 283 282 283 283 285 286 285 285 285 284 283 282 281 281 280 280 280 281 281 279 280 279 279 280 280 281 281 282 282 283 282
298 297 297 297 295 293 292 290 288 286 284 283 282 283 283 283 284 284 284 284 284 283 283 282 281 280 280 280 280 281 280 280 279 278 278 278 280 280 280 279 280 282 281
296 296 296 296 295 292 289 287 285 285 283 282 282 282 282 282 283 283 283 283 282 282 281 281 281 281 282 282 280 281 279 279 279 278 278 278 278 279 278 280 278 279 280
295 294 295 294 291 289 287 286 283 283 283 282 281 281 281 281 284 285 283 282 282 281 280 279 280 280 281 282 283 282 281 280 279 279 279 278 279 279 280 278 278 277 276
292 292 291 290 288 287 286 284 282 282 282 281 281 281 280 281 285 285 284 281 281 281 280 279 279 279 281 280 283 283 283 282 282 280 278 279 279 280 280 278 277 278 277
290 289 289 287 287 286 285 283 282 282 281 281 280 281 281 281 286 286 283 281 281 280 280 280 280 280 279 278 278 279 280 281 282 283 283 282 282 280 279 279 279 278 278
288 288 288 287 286 285 284 283 282 281 281 281 281 280 280 280 286 286 283 281 281 280 280 280 281 280 280 282 279 278 278 279 280 281 282 283 283 283 283 281 278 276 275
287 288 288 287 285 284 284 284 284 282 281 280 280 281 281 281 286 286 283 282 281 280 279 279 281 280 282 282 281 280 278 279 279 279 278 279 281 281 282 281 279 276 275
286 286 285 285 284 285 284 284 283 281 280 279 279 279 280 282 284 286 286 284 285 283 282 281 281 283 284 284 283 281 281 281 280 280 280 279 279 278 278 278 278 276 273
284 284 284 284 284 284 283 282 282 281 279 279 279 279 280 280 284 286 287 287 287 285 283 283 282 283 284 285 284 284 284 284 283 282 280 278 277 276 276 276 275 274 274
282 281 282 283 283 283 282 281 281 281 280 279 279 279 279 279 281 286 287 288 288 284 284 283 283 283 283 283 284 284 282 282 281 278 277 276 276 275 274 273 273 272 271
280 281 282 282 282 283 283 283 282 282 281 280 280 280 280 279 280 282 284 286 286 286 286 284 283 282 282 282 280 279 278 277 276 276 275 275 274 273 271 271 269 269 267
282 281 282 282 283 282 283 283 282 283 284 282 283 283 282 281 281 282 283 283 284 285 280 280 280 279 277 276 276 275 275 274 274 274 272 272 271 270 269 269 268 266 264
281 282 282 282 282 282 281 279 284 284 285 286 286 285 284 285 284 284 284 284 284 283 276 277 276 276 276 275 274 273 272 270 271 270 269 269 268 267 267 267 266 265 263
282 281 281 280 280 279 279 279 278 281 284 284 284 284 283 282 282 283 284 283 283 282 276 276 277 275 275 273 272 271 270 269 267 267 267 266 266 265 264 264 264 263 263
280 279 281 280 281 280 280 280 281 280 279 279 280 280 280 280 281 282 282 281 277 277 275 274 273 272 271 270 268 267 267 266 265 265 265 264 263 263 263 262 262 261 261
279 278 278 278 278 278 278 278 279 279 279 276 277 276 278 281 281 282 280 275 274 272 269 270 270 268 267 266 265 264 264 264 264 263 263 262 262 261 261 261 261 259 259
272 272 275 275 274 275 275 275 275 275 275 274 276 275 273 274 274 270 268 268 270 270 267 267 265 264 264 263 263 262 262 260 261 261 261 261 261 261 260 260 259 259 260
271 270 270 272 273 273 273 273 273 273 273 273 272 269 268 274 270 269 267 266 267 266 264 264 262 262 261 261 261 261 260 262 261 260 260 260 260 259 259 260 260 259 258
268 268 269 268 269 269 269 270 270 271 270 269 267 268 271 268 267 266 265 264 263 263 263 262 261 261 260 260 260 260 260 259 260 259 259 258 258 259 258 258 258 258 258
267 266 266 265 265 263 266 266 267 268 267 267 266 266 266 265 264 264 263 262 260 260 259 259 260 259 259 258 259 260 260 259 260 260 258 258 258 258 258 258 258 256 256
265 266 265 264 265 265 265 264 263 262 264 264 264 264 264 263 263 262 261 261 260 259 259 258 258 258 259 258 258 257 257 258 259 258 257 258 257 257 257 257 256 255 254
263 263 263 263 263 263 263 262 262 262 262 262 262 262 262 261 260 260 260 259 258 259 258 257 257 257 257 256 257 257 257 257 257 256 256 256 256 256 255 255 255 255 254
260 260 260 260 260 260 260 261 260 260 260 261 260 260 260 260 260 260 259 258 258 257 258 258 258 257 257 257 257 257 256 257 255 254 256 255 255 255 255 253 253 253 253
Wind_Speed
16 17 17 15 14 12 12 14 13 13 12 12 12 12 12 12 14 13 12 13 13 11 10 10 9 9 6 5 4 4 3 2 3 2 2 2 4 5 5 6 7 9 8
15 16 16 16 16 15 13 15 14 14 12 13 12 11 11 12 14 14 14 12 13 13 12 11 11 6 7 6 5 5 4 4 3 5 2 3 5 6 7 9 8 7 9
15 16 17 16 16 16 14 14 14 14 13 13 13 14 13 12 14 13 13 13 12 12 12 12 12 10 7 6 6 6 4 3 4 3 3 2 3 5 8 8 9 9 8
15 16 16 16 16 14 13 13 13 13 14 14 14 14 14 13 13 12 12 12 11 10 11 10 10 9 8 9 7 7 6 5 5 5 5 6 6 6 7 9 9 8 10
15 16 16 13 15 13 13 12 12 13 13 14 14 13 13 12 11 14 13 12 12 11 10 8 7 7 9 9 6 8 7 6 5 5 6 7 8 8 8 7 10 10 11
16 16 16 14 13 13 13 13 13 13 13 13 15 15 15 10 20 22 16 12 11 11 10 7 6 7 9 13 14 10 9 8 8 6 7 9 11 9 8 9 10 10 11
14 12 13 13 13 13 13 13 13 14 14 15 14 14 14 13 25 24 20 11 11 10 9 8 6 5 8 8 13 15 14 15 14 8 10 10 12 10 10 11 12 11 11
12 12 11 12 13 13 14 14 13 12 13 14 14 14 13 11 24 23 19 11 9 9 9 9 9 9 10 8 8 8 8 9 10 9 11 11 11 11 10 11 13 11 10
12 12 13 13 13 13 13 13 12 11 11 12 12 13 13 9 23 24 17 10 9 9 8 9 9 8 11 15 9 9 10 9 9 17 19 20 20 20 18 7 6 9 10
10 10 10 11 12 13 13 13 11 11 11 9 9 10 11 11 24 24 16 8 9 7 7 8 12 11 15 17 12 10 9 9 8 8 8 11 14 12 16 11 9 10 10
7 8 9 10 11 11 10 9 10 10 9 9 10 8 10 12 17 26 24 11 9 8 8 8 7 19 20 19 20 10 11 6 8 8 8 7 7 7 7 7 8 8 10
7 8 8 9 7 8 11 10 10 11 11 10 10 8 7 9 16 25 26 18 14 9 9 7 6 15 17 20 16 18 18 14 7 7 4 4 5 6 7 6 8 9 8
7 7 8 9 9 10 12 12 10 10 9 10 9 8 8 7 7 21 25 24 19 9 6 9 13 14 17 14 17 16 11 6 5 5 6 7 6 5 7 7 7 7 9
8 8 8 8 9 8 7 8 9 9 8 8 8 8 7 7 8 8 9 9 14 11 10 9 11 11 11 8 4 3 3 3 3 5 6 5 5 5 6 6 7 8 8
8 8 8 7 8 8 6 6 6 8 10 10 9 9 9 9 10 13 13 9 8 9 5 3 5 5 6 6 4 4 3 3 3 3 4 5 5 5 5 5 5 6 7
7 7 6 6 7 6 6 5 7 6 7 8 11 10 6 9 14 20 18 19 17 15 4 6 7 7 8 7 6 5 4 3 3 3 3 4 5 5 5 5 4 6 7
6 6 5 5 5 6 6 6 7 4 6 6 6 8 8 7 11 14 17 17 16 16 6 6 7 7 6 6 5 4 4 3 2 3 4 4 4 4 4 5 4 5 7
7 6 5 5 5 5 6 5 5 7 6 4 3 4 4 7 10 11 14 11 6 5 4 5 5 5 5 5 4 4 4 4 4 4 4 3 3 4 4 4 4 5 6
7 5 5 4 4 4 4 4 4 5 5 5 5 5 2 9 7 9 12 4 5 4 3 4 3 4 4 4 4 4 4 4 4 4 4 4 3 4 4 4 5 6 6
7 8 6 5 4 4 4 5 5 4 5 5 5 5 3 5 3 3 3 3 3 3 3 3 3 3 3 4 4 4 4 4 5 4 4 4 4 4 5 5 5 5 5
4 5 7 5 5 4 3 4 4 4 5 4 4 3 4 4 4 3 3 2 2 2 3 3 4 4 4 4 4 4 4 4 4 4 4 4 4 5 5 5 5 5 5
5 5 5 5 4 4 4 3 3 3 3 4 3 3 7 3 3 3 3 2 2 2 1 2 3 3 4 5 5 5 5 5 5 5 5 4 4 5 5 5 5 5 5
5 6 5 5 5 5 4 3 3 2 3 3 4 4 3 3 3 3 3 3 3 3 3 3 4 4 4 4 5 5 6 6 6 5 5 5 5 6 6 6 6 6 5
6 7 6 5 4 4 4 3 3 3 3 3 3 3 3 3 3 3 3 3 3 3 3 3 4 5 4 5 5 6 6 5 5 5 7 6 6 6 6 6 6 6 5
7 7 6 5 4 4 3 3 3 2 2 1 1 2 2 2 3 3 3 3 4 4 6 6 5 8 9 10 9 9 9 11 9 7 5 7 9 9 7 6 6 6 6
7 7 5 4 4 4 3 3 3 2 2 1 2 2 3 3 4 4 4 5 5 6 6 6 8 11 10 9 11 12 11 12 10 11 8 7 8 8 7 8 8 6 7
Wind_Direction
209 208 204 197 189 185 187 194 188 181 170 169 169 163 163 162 168 165 158 157 152 148 150 147 140 140 130 121 127 125 142 173 218 169 255 268 285 294 296 301 303 302 300
204 205 206 200 193 188 189 192 184 182 171 169 165 164 166 163 168 166 157 160 158 159 156 151 148 146 133 155 148 163 176 184 216 245 280 275 266 299 295 294 288 287 287
205 204 201 201 196 193 191 187 187 180 170 168 168 169 169 169 168 170 163 162 164 161 162 161 155 153 155 172 173 176 177 179 210 238 266 252 282 291 291 283 284 286 281
204 206 206 201 196 189 186 184 179 176 171 174 179 175 174 168 170 168 160 159 158 160 162 162 157 168 173 171 183 190 182 191 209 231 250 264 271 284 284 289 292 293 295
207 209 209 201 197 186 180 178 175 177 179 179 174 175 173 172 172 167 162 159 159 158 161 155 173 155 199 188 181 192 187 201 216 233 250 261 263 269 270 295 289 296 297
207 211 205 199 187 184 176 174 175 180 178 176 180 176 175 177 177 172 163 158 154 157 164 161 157 178 211 211 214 208 200 201 220 229 248 254 265 272 281 281 288 294 302
204 201 197 188 186 182 173 173 180 184 175 181 181 177 180 175 177 173 165 156 156 162 155 166 158 193 208 214 225 228 226 229 233 236 249 257 274 276 279 282 280 281 282
200 198 191 187 187 180 177 180 178 179 183 181 182 183 177 176 175 171 164 150 153 161 165 176 184 202 205 200 216 229 233 237 242 243 249 265 275 284 276 272 275 284 282
201 199 191 188 183 179 183 179 173 170 177 182 178 174 172 162 170 168 162 157 157 169 183 186 194 204 204 214 218 227 237 241 245 252 257 264 267 269 267 277 264 274 282
198 197 185 181 178 178 175 175 175 173 169 163 162 166 154 157 173 174 167 161 164 174 192 199 204 209 222 229 227 220 237 241 236 243 255 265 270 273 274 265 277 275 285
158 154 162 170 171 170 164 160 156 153 145 146 144 147 155 166 175 181 182 178 177 177 193 208 213 218 226 231 230 222 234 250 247 248 248 247 249 267 271 268 267 270 279
138 143 150 150 148 148 145 143 148 141 143 144 143 155 173 177 184 189 192 192 186 189 202 208 201 216 230 234 231 235 243 250 250 254 250 265 270 276 282 282 281 281 278
117 120 129 133 137 144 142 143 144 153 158 157 166 170 178 177 191 196 201 206 209 205 195 199 210 214 228 234 236 239 243 241 236 249 264 280 291 313 315 294 286 291 293
112 118 126 127 132 137 141 149 152 161 163 164 171 179 178 182 192 197 207 216 218 212 206 214 209 208 209 214 195 190 175 195 240 263 277 286 294 288 298 308 310 312 309
117 123 127 131 137 142 143 158 169 179 180 177 185 184 181 194 205 200 202 200 206 207 131 140 178 171 167 173 182 189 191 200 228 248 272 287 292 298 301 316 317 312 298
130 139 142 140 141 136 131 99 100 141 168 179 175 178 181 197 199 204 211 218 210 185 177 185 189 192 201 201 199 191 190 189 227 251 264 273 282 295 300 304 293 289 292
130 125 113 117 127 132 139 142 136 131 134 146 157 193 192 188 191 202 212 212 207 192 202 197 201 197 197 189 184 185 189 189 140 228 245 251 262 271 274 281 286 288 289
119 121 137 141 149 154 161 161 161 163 166 142 106 145 185 192 191 190 178 158 165 185 185 184 185 179 171 171 170 177 183 180 205 213 221 227 236 251 257 262 274 282 285
129 128 128 133 134 136 138 141 139 152 153 140 137 78 73 134 121 158 135 146 167 163 149 159 158 158 159 161 163 170 185 196 192 194 209 215 220 234 247 257 263 261 277
78 92 104 112 116 120 128 137 137 143 153 159 164 145 119 108 138 95 72 101 124 130 153 159 151 150 160 171 175 177 180 186 194 206 221 224 228 232 242 245 251 265 267
90 86 95 100 106 119 136 143 146 156 157 171 143 127 106 162 138 131 125 119 129 144 160 164 161 170 176 178 177 179 197 208 210 216 220 226 224 233 235 248 256 247 260
70 71 70 82 90 89 87 93 123 135 150 158 138 162 133 104 133 144 146 148 145 138 135 172 177 184 185 187 190 196 207 217 215 211 220 224 228 234 238 244 249 251 256
76 85 80 72 75 87 78 75 95 111 130 143 147 147 145 143 163 173 168 157 164 176 179 193 202 199 198 199 207 212 216 217 217 210 214 223 224 234 229 240 240 243 246
68 67 71 69 62 77 85 88 85 73 105 125 145 157 175 176 189 192 186 182 190 201 206 212 226 230 226 219 217 219 229 234 224 216 216 231 235 229 236 237 238 239 250
55 59 55 50 48 52 71 63 67 72 88 133 178 203 207 210 214 217 208 202 208 213 217 217 221 231 229 229 230 226 226 232 224 214 212 224 236 238 231 233 239 238 240
53 56 55 52 50 38 31 25 21 1 335 303 265 251 248 239 240 236 227 222 225 228 232 230 233 232 239 243 241 237 235 230 223 222 216 223 228 230 225 225 226 232 235